Regional Weather Roundup
Issued by NWS

Home | Current Version | Previous Version | Graphics & Text | Print | Product List | Glossary On
Versions: 1 2 3 4 5 6 7 8 9 10 11 12 13 14 15 16 17 18 19 20 21 22 23 24 25 26 27 28 29 30 31 32 33 34 35 36 37 38 39 40 41 42 43 44 45 46 47 48
000
ASUS45 KCYS 190910
RWRWY

WYOMING REGIONAL WEATHER ROUNDUP
NATIONAL WEATHER SERVICE CHEYENNE WY
200 AM MST FRI DEC 19 2014

NOTE:  "FAIR" INDICATES FEW OR NO CLOUDS BELOW 12,000 FEET
WITH NO SIGNIFICANT WEATHER AND/OR OBSTRUCTIONS TO VISIBILITY.

WYZ001-191000-
YELLOWSTONE NATIONAL PARK

CITY           SKY/WX    TMP DP  RH WIND       PRES   REMARKS
LK YELLOWSTONE   N/A     23  19  85 VRB3      30.06S
W YELLOWSTONE  NOT AVBL

$$
WYZ002>013-054>058-071-098>099-191000-
NORTHERN WYOMING

CITY           SKY/WX    TMP DP  RH WIND       PRES   REMARKS
JACKSON        MOCLDY    27  27 100 SW5       30.09S WCI  21
CODY           FAIR      36  18  48 CALM      29.99S
GREYBULL       FAIR       8   6  92 CALM      30.07S
WORLAND        FAIR       1  -3  83 S5        30.06R WCI  -9
SHERIDAN       FAIR      23  12  62 SW7       29.96F WCI  15
BUFFALO        FAIR      28  11  48 W10       29.97F WCI  19
GILLETTE       FAIR      24  13  62 CALM      29.98S
HULETT           N/A    N/A N/A N/A MISG        N/A
NEWCASTLE      FAIR      21  18  86 N3        30.02S

$$
WYZ014>020-022>026-101>103-191000-
CENTRAL WYOMING

CITY           SKY/WX    TMP DP  RH WIND       PRES   REMARKS
BIG PINEY      FAIR       8   5  87 E3        30.12S
PINEDALE       CLOUDY    16  14  93 W3        30.12S
DUBOIS         CLOUDY    23  18  80 NW7       30.03S WCI  15
LANDER         FAIR      -2  -5  87 CALM      30.04F FOG
RIVERTON       FOG        7   4  87 CALM      30.07S VSB 1/4
CASPER         FAIR      23  15  71 SW18      30.04S WCI   9
DOUGLAS        FAIR      19  14  81 N8        30.03F WCI   9

$$
WYZ021-027>030-104>119-191000-
SOUTHERN WYOMING

CITY           SKY/WX    TMP DP  RH WIND       PRES   REMARKS
EVANSTON       FAIR      19  17  92 SW7       30.15R WCI  10
KEMMERER       FAIR      23  19  86 W5        30.13R WCI  17
FORT BRIDGER   FAIR      23  18  83 SW9       30.16S WCI  13
ROCK SPRINGS   FAIR      21  17  84 W13       30.12S WCI   9
DIXON          PTSUNNY  N/A N/A N/A CALM      30.18S
RAWLINS        FAIR      22  18  85 W14       30.10R WCI   9
SARATOGA       FAIR      10   7  85 S6        30.12R WCI   1
LARAMIE        FAIR      14   9  80 SW7       30.04S WCI   4
CHEYENNE       FAIR      22  11  62 SW6       30.03F WCI  14
TORRINGTON     FAIR     N/A N/A N/A N5        30.04S
PINE BLUFFS    FAIR      18  14  86 CALM      30.06S

$$



USA.gov is the U.S. government's official web portal to all federal, state and local government web resources and services.